Weather History for KUKF - October, 2012

Change the Weather History Date:

Friday, October 5, 2012

  Actual Average Record
Temperature  
Mean Temperature 64 °F -  
Max Temperature 77 °F 75 °F 90 °F (1986)
Min Temperature 50 °F 45 °F 27 °F (1974)
Degree Days  
Heating Degree Days 2    
Growing Degree Days 14 (Base 50)    
Moisture  
Dew Point 53 °F    
Average Humidity 77    
Maximum Humidity 100    
Minimum Humidity 41    
Precipitation  
Precipitation 0.00 in - - ()
Sea Level Pressure  
Sea Level Pressure 30.20 in    
Wind  
Wind Speed 1 mph (SSW)    
Max Wind Speed 9 mph    
Max Gust Speed -    
Visibility 10 miles    
Events      
Averages and records for this station are not official NWS values.
T = Trace of Precipitation, MM = Missing Value Source: NWS Daily Summary

Daily Weather History Graph

Daily Weather History Graph

Search for Another Location

Airport or City:

Trip Planner

Search our weather history database for the weather conditions in past years. The results will help you decide how hot, cold, wet, or windy it might be!

Date:

Astronomy

Oct. 05, 2012 Rise Set
Actual Time 7:23 AM EDT 7:01 PM EDT
Civil Twilight 6:57 AM EDT 7:27 PM EDT
Nautical Twilight 6:27 AM EDT 7:56 PM EDT
Astronomical Twilight 5:57 AM EDT 8:26 PM EDT
Moon 10:32 PM EDT (10/5) 12:21 PM EDT (10/5)
Length of Visible Light 12h 29m
Length of Day
11h 38m
Waning Gibbous, 74% of the Moon is Illuminated
Oct 5
Waning Gibbous
Oct 8
Last Quarter
Oct 15
New
Oct 21
First Quarter
Oct 29
Full

Hourly Weather History & Observations

Time (EDT) Temp. Dew Point Humidity Pressure Visibility Wind Dir Wind Speed Gust Speed Precip Events Conditions
12:15 AM 53.6 °F 51.8 °F 94% 30.30 in 10.0 mi Calm Calm - N/A   Clear
12:35 AM 51.8 °F 51.8 °F 100% 30.30 in 7.0 mi Calm Calm - N/A   Clear
12:55 AM 53.6 °F 51.8 °F 94% 30.29 in 10.0 mi Calm Calm - N/A   Clear
1:15 AM 53.6 °F 51.8 °F 94% 30.29 in 10.0 mi Calm Calm - N/A   Clear
1:35 AM 53.6 °F 51.8 °F 94% 30.28 in 10.0 mi Calm Calm - N/A   Clear
1:55 AM 53.6 °F 51.8 °F 94% 30.28 in 10.0 mi Calm Calm - N/A   Clear
2:15 AM 53.6 °F 51.8 °F 94% 30.28 in 10.0 mi Calm Calm - N/A   Clear
2:35 AM 51.8 °F 51.8 °F 100% 30.27 in 10.0 mi Calm Calm - N/A   Clear
2:55 AM 53.6 °F 51.8 °F 94% 30.27 in 10.0 mi Calm Calm - N/A   Clear
3:15 AM 51.8 °F 51.8 °F 100% 30.27 in 10.0 mi Calm Calm - N/A   Clear
3:35 AM 51.8 °F 51.8 °F 100% 30.26 in 5.0 mi Calm Calm - N/A   Clear
3:55 AM 51.8 °F 51.8 °F 100% 30.27 in 7.0 mi Calm Calm - N/A   Clear
4:15 AM 51.8 °F 50.0 °F 94% 30.27 in 7.0 mi Calm Calm - N/A   Clear
4:35 AM 51.8 °F 50.0 °F 94% 30.27 in 10.0 mi Calm Calm - N/A   Clear
4:55 AM 51.8 °F 50.0 °F 94% 30.27 in 10.0 mi Calm Calm - N/A   Clear
5:15 AM 51.8 °F 50.0 °F 94% 30.27 in 10.0 mi Calm Calm - N/A   Clear
5:35 AM 51.8 °F 50.0 °F 94% 30.27 in 10.0 mi Calm Calm - N/A   Clear
5:55 AM 51.8 °F 50.0 °F 94% 30.27 in 10.0 mi Calm Calm - N/A   Clear
6:15 AM 50.0 °F 50.0 °F 100% 30.27 in 10.0 mi Calm Calm - N/A   Clear
6:35 AM 51.8 °F 50.0 °F 94% 30.26 in 10.0 mi Calm Calm - N/A   Clear
6:55 AM 51.8 °F 50.0 °F 94% 30.26 in 10.0 mi Calm Calm - N/A   Clear
7:15 AM 50.0 °F 48.2 °F 94% 30.26 in 7.0 mi Calm Calm - N/A   Clear
7:35 AM 50.0 °F 50.0 °F 100% 30.27 in 7.0 mi Calm Calm - N/A   Clear
7:55 AM 50.0 °F 48.2 °F 94% 30.27 in 7.0 mi Calm Calm - N/A   Clear
8:35 AM 51.8 °F 50.0 °F 94% 30.28 in 10.0 mi Calm Calm - N/A   Clear
8:55 AM 55.4 °F 51.8 °F 88% 30.28 in 10.0 mi Calm Calm - N/A   Clear
9:15 AM 57.2 °F 53.6 °F 88% 30.28 in 10.0 mi SW 3.5 mph - N/A   Clear
9:35 AM 59.0 °F 53.6 °F 82% 30.28 in 10.0 mi Calm Calm - N/A   Clear
9:55 AM 60.8 °F 55.4 °F 82% 30.28 in 10.0 mi Calm Calm - N/A   Clear
10:15 AM 62.6 °F 55.4 °F 77% 30.27 in 10.0 mi Calm Calm - N/A   Clear
10:35 AM 64.4 °F 55.4 °F 73% 30.27 in 10.0 mi Calm Calm - N/A   Clear
10:55 AM 68.0 °F 55.4 °F 64% 30.27 in 10.0 mi South 3.5 mph - N/A   Clear
11:15 AM 68.0 °F 55.4 °F 64% 30.26 in 10.0 mi SSW 3.5 mph - N/A   Clear
11:35 AM 69.8 °F 55.4 °F 60% 30.25 in 10.0 mi Calm Calm - N/A   Clear
11:55 AM 71.6 °F 55.4 °F 57% 30.24 in 10.0 mi Calm Calm - N/A   Clear
12:35 PM 71.6 °F 51.8 °F 50% 30.23 in 10.0 mi Calm Calm - N/A   Clear
12:55 PM 73.4 °F 50.0 °F 44% 30.22 in 10.0 mi West 3.5 mph - N/A   Clear
1:15 PM 75.2 °F 53.6 °F 47% 30.20 in 10.0 mi West 4.6 mph - N/A   Clear
1:35 PM 75.2 °F 53.6 °F 47% 30.19 in 10.0 mi SSW 4.6 mph - N/A   Clear
1:55 PM 77.0 °F 53.6 °F 44% 30.18 in 10.0 mi SSW 9.2 mph - N/A   Clear
2:35 PM 77.0 °F 51.8 °F 41% 30.16 in 10.0 mi SSW 3.5 mph - N/A   Clear
2:55 PM 77.0 °F 53.6 °F 44% 30.15 in 10.0 mi South 8.1 mph - N/A   Clear
3:15 PM 77.0 °F 53.6 °F 44% 30.15 in 10.0 mi SSE 5.8 mph - N/A   Clear
3:35 PM 77.0 °F 53.6 °F 44% 30.14 in 10.0 mi SSW 3.5 mph - N/A   Clear
3:55 PM 77.0 °F 55.4 °F 47% 30.13 in 10.0 mi SSW 9.2 mph - N/A   Clear
4:15 PM 77.0 °F 55.4 °F 47% 30.12 in 10.0 mi SSW 8.1 mph - N/A   Clear
4:35 PM 75.2 °F 53.6 °F 47% 30.12 in 10.0 mi SW 5.8 mph - N/A   Clear
4:55 PM 75.2 °F 53.6 °F 47% 30.12 in 10.0 mi SSW 5.8 mph - N/A   Clear
5:15 PM 75.2 °F 53.6 °F 47% 30.11 in 10.0 mi South 6.9 mph - N/A   Clear
5:35 PM 73.4 °F 53.6 °F 50% 30.11 in 10.0 mi South 6.9 mph - N/A   Clear
5:55 PM 73.4 °F 53.6 °F 50% 30.10 in 10.0 mi South 4.6 mph - N/A   Clear
6:15 PM 71.6 °F 55.4 °F 57% 30.10 in 10.0 mi South 3.5 mph - N/A   Clear
6:35 PM 71.6 °F 55.4 °F 57% 30.10 in 10.0 mi South 3.5 mph - N/A   Clear
7:15 PM 66.2 °F 57.2 °F 73% 30.10 in 10.0 mi Calm Calm - N/A   Clear
7:35 PM 64.4 °F 55.4 °F 73% 30.11 in 10.0 mi Calm Calm - N/A   Clear
7:55 PM 62.6 °F 55.4 °F 77% 30.11 in 10.0 mi Calm Calm - N/A   Clear
8:15 PM 62.6 °F 55.4 °F 77% 30.11 in 10.0 mi Calm Calm - N/A   Clear
8:35 PM 60.8 °F 55.4 °F 82% 30.11 in 10.0 mi Calm Calm - N/A   Clear
8:55 PM 60.8 °F 55.4 °F 82% 30.11 in 10.0 mi North 4.6 mph - N/A   Clear
9:15 PM 59.0 °F 55.4 °F 88% 30.10 in 10.0 mi Calm Calm - N/A   Clear
9:35 PM 59.0 °F 55.4 °F 88% 30.10 in 10.0 mi Calm Calm - N/A   Clear
9:55 PM 59.0 °F 55.4 °F 88% 30.10 in 10.0 mi Calm Calm - N/A   Clear
10:15 PM 57.2 °F 55.4 °F 94% 30.11 in 10.0 mi Calm Calm - N/A   Clear
10:35 PM 57.2 °F 55.4 °F 94% 30.11 in 10.0 mi Calm Calm - N/A   Clear
10:55 PM 57.2 °F 55.4 °F 94% 30.10 in 10.0 mi Calm Calm - N/A   Clear
11:35 PM 57.2 °F 55.4 °F 94% 30.10 in 10.0 mi Calm Calm - N/A   Clear
11:55 PM 57.2 °F 55.4 °F 94% 30.10 in 10.0 mi Calm Calm - N/A   Clear